Find Starlink 36684

NORAD ID: 68718 Int'l Des: 2026-081 Owner: SPXS Country: US Constellation: starlink operational
LEOCIRCULAR

Current View

Loading 3D Globe...

About Starlink 36684

Description loading...

Upcoming Passes

Passes for default location (London). Set your location on the main map for personalized predictions.

Altitude History

Loading altitude history...

Two-Line Element Set

1 68718U 26081V 26150.83967205 .00028677 00000-0 85563-3 0 9991
2 68718 53.1581 12.2731 0000463 75.2552 284.8502 15.34436768 7328
Epoch: May 30, 2026 • Age: 7 hours

Current Status

Altitude 463.4 km
Velocity 7.64 km/s
Sub-Earth Point 1.15°N, 106.28°W
Launch Date Apr 14, 2026
Age 0.1 years
Type internet

Technical Details

Classification Payload
Mass 575.00 kg
Dry Mass 530.00 kg
Total Mass 575.00 kg
Length 0.30 m
Diameter 4.10 m
Span 29.00 m
Shape Box + pan
Manufacturer SPXS
Bus Type Starlink V2MO
Phase Status In Orbit
Owner/State SPXS/US

Most Searched